• In Hungary
  • List of Countries
  • For 7 days
  • Water Temperature
  • Satellite Maps
  • Weather Map
  • News
  • Weather Widgets
  • user-avatar
    Login

    Hourly Weather Syrynka

    Today, 24 September, Monday

    Time Temperature Precipitation Wind Pressure Humidity
    00:00 +13°C° 2.7 mm 8 mps 732 mmHg 82%
    01:00 +13°C° 2.7 mm 8 mps 732 mmHg 87%
    02:00 +11°C° 0.3 mm 8 mps 734 mmHg 86%
    03:00 +10°C° 0.3 mm 8 mps 736 mmHg 84%
    04:00 +7°C° 0.3 mm 8 mps 738 mmHg 83%
    05:00 +8°C° 0.1 mm 7 mps 739 mmHg 82%
    06:00 +8°C° 0.1 mm 7 mps 739 mmHg 82%
    07:00 +8°C° 0.1 mm 7 mps 740 mmHg 81%
    08:00 +8°C° 0.1 mm 7 mps 741 mmHg 77%
    09:00 +8°C° 0.1 mm 7 mps 742 mmHg 74%
    10:00 +9°C° 0.1 mm 8 mps 744 mmHg 70%
    11:00 +9°C° 0.1 mm 8 mps 744 mmHg 65%
    12:00 +10°C° 0.1 mm 8 mps 745 mmHg 61%
    13:00 +11°C° 0.1 mm 8 mps 745 mmHg 56%
    14:00 +10°C° 0.2 mm 8 mps 745 mmHg 57%
    15:00 +10°C° 0.2 mm 8 mps 745 mmHg 57%
    16:00 +10°C° 0.2 mm 7 mps 745 mmHg 57%
    17:00 +9°C° 0.1 mm 6 mps 746 mmHg 60%
    18:00 +8°C° 0.1 mm 6 mps 746 mmHg 63%
    19:00 +7°C° 0.1 mm 5 mps 746 mmHg 66%
    20:00 +7°C° 0 mm 5 mps 747 mmHg 66%
    21:00 +6°C° 0 mm 5 mps 747 mmHg 67%
    22:00 +6°C° 0 mm 5 mps 748 mmHg 67%
    23:00 +6°C° 0.1 mm 5 mps 748 mmHg 69%

    Tomorrow, 25 September, Tuesday

    Time Temperature Precipitation Wind Pressure Humidity
    00:00 +6°C° 0.1 mm 5 mps 749 mmHg 71%
    01:00 +5°C° 0.1 mm 5 mps 749 mmHg 74%
    02:00 +5°C° 0.1 mm 4 mps 750 mmHg 75%
    03:00 +5°C° 0.1 mm 4 mps 750 mmHg 77%
    04:00 +4°C° 0.1 mm 4 mps 751 mmHg 78%
    05:00 +4°C° 0 mm 4 mps 751 mmHg 78%
    06:00 +4°C° 0 mm 3 mps 752 mmHg 78%
    07:00 +5°C° 0 mm 3 mps 752 mmHg 78%
    08:00 +6°C° 0 mm 4 mps 753 mmHg 73%
    09:00 +7°C° 0 mm 4 mps 753 mmHg 69%
    10:00 +8°C° 0 mm 4 mps 754 mmHg 65%
    11:00 +10°C° 0.1 mm 4 mps 754 mmHg 62%
    12:00 +11°C° 0.1 mm 4 mps 754 mmHg 59%
    13:00 +11°C° 0.1 mm 4 mps 754 mmHg 56%
    14:00 +11°C° 0.1 mm 4 mps 754 mmHg 56%
    15:00 +11°C° 0.1 mm 4 mps 754 mmHg 57%
    16:00 +11°C° 0.1 mm 4 mps 754 mmHg 57%
    17:00 +10°C° 0 mm 3 mps 754 mmHg 63%
    18:00 +8°C° 0 mm 2 mps 754 mmHg 68%
    19:00 +7°C° 0 mm 2 mps 755 mmHg 74%
    20:00 +7°C° 0 mm 2 mps 755 mmHg 75%
    21:00 +7°C° 0 mm 1 mps 756 mmHg 76%
    22:00 +7°C° 0 mm 1 mps 756 mmHg 77%
    23:00 +7°C° 0 mm 1 mps 756 mmHg 77%

    Day after tomorrow, 26 September, Wednesday

    Time Temperature Precipitation Wind Pressure Humidity
    00:00 +6°C° 0 mm 1 mps 756 mmHg 77%
    01:00 +6°C° 0 mm 1 mps 756 mmHg 77%
    02:00 +6°C° 0 mm 1 mps 756 mmHg 77%
    03:00 +5°C° 0 mm 1 mps 756 mmHg 78%
    04:00 +5°C° 0 mm 1 mps 756 mmHg 78%
    05:00 +6°C° 0 mm 1 mps 756 mmHg 76%
    06:00 +6°C° 0 mm 1 mps 756 mmHg 75%
    07:00 +7°C° 0 mm 1 mps 756 mmHg 73%
    08:00 +8°C° 0 mm 2 mps 756 mmHg 66%
    09:00 +10°C° 0 mm 3 mps 755 mmHg 58%
    10:00 +12°C° 0 mm 3 mps 755 mmHg 50%
    11:00 +13°C° 0 mm 4 mps 755 mmHg 48%
    12:00 +14°C° 0 mm 4 mps 754 mmHg 45%
    13:00 +15°C° 0 mm 4 mps 754 mmHg 43%
    14:00 +14°C° 0 mm 4 mps 753 mmHg 45%
    15:00 +14°C° 0 mm 4 mps 752 mmHg 47%
    16:00 +14°C° 0 mm 4 mps 752 mmHg 49%
    17:00 +13°C° 0 mm 4 mps 752 mmHg 52%
    18:00 +12°C° 0 mm 3 mps 752 mmHg 55%
    19:00 +10°C° 0 mm 3 mps 752 mmHg 58%
    20:00 +10°C° 0 mm 3 mps 752 mmHg 57%
    21:00 +10°C° 0 mm 3 mps 751 mmHg 57%
    22:00 +10°C° 0 mm 3 mps 751 mmHg 56%
    23:00 +9°C° 0 mm 3 mps 751 mmHg 57%

    27 September, Thursday

    Time Temperature Precipitation Wind Pressure Humidity
    00:00 +9°C° 0 mm 3 mps 751 mmHg 58%
    01:00 +9°C° 0 mm 3 mps 751 mmHg 58%
    02:00 +9°C° 0 mm 3 mps 750 mmHg 59%
    03:00 +8°C° 0 mm 3 mps 750 mmHg 59%
    04:00 +8°C° 0 mm 3 mps 750 mmHg 60%
    05:00 +9°C° 0 mm 3 mps 750 mmHg 59%
    06:00 +9°C° 0 mm 3 mps 749 mmHg 59%
    07:00 +10°C° 0 mm 3 mps 749 mmHg 59%
    08:00 +12°C° 0 mm 3 mps 749 mmHg 54%
    09:00 +14°C° 0 mm 3 mps 749 mmHg 50%
    10:00 +17°C° 0 mm 3 mps 749 mmHg 46%
    11:00 +18°C° 0 mm 3 mps 749 mmHg 45%
    12:00 +20°C° 0 mm 3 mps 749 mmHg 44%
    13:00 +21°C° 0 mm 3 mps 748 mmHg 44%
    14:00 +21°C° 0 mm 3 mps 748 mmHg 46%
    15:00 +21°C° 0 mm 3 mps 747 mmHg 49%
    16:00 +20°C° 0 mm 3 mps 747 mmHg 51%
    17:00 +19°C° 0 mm 3 mps 747 mmHg 55%
    18:00 +17°C° 0 mm 3 mps 746 mmHg 59%
    19:00 +15°C° 0 mm 2 mps 746 mmHg 63%
    20:00 +15°C° 0 mm 2 mps 746 mmHg 63%
    21:00 +13°C° 0 mm 3 mps 746 mmHg 63%
    22:00 +13°C° 0 mm 3 mps 746 mmHg 63%
    23:00 +13°C° 0 mm 3 mps 745 mmHg 62%

    28 September, Friday

    Time Temperature Precipitation Wind Pressure Humidity
    00:00 +12°C° 0 mm 3 mps 745 mmHg 61%
    01:00 +12°C° 0 mm 3 mps 745 mmHg 61%
    02:00 +12°C° 0 mm 3 mps 744 mmHg 60%
    03:00 +12°C° 0 mm 3 mps 744 mmHg 60%
    04:00 +11°C° 0 mm 3 mps 744 mmHg 59%
    05:00 +12°C° 0 mm 2 mps 744 mmHg 60%
    06:00 +13°C° 0 mm 2 mps 744 mmHg 60%
    07:00 +13°C° 0 mm 2 mps 744 mmHg 61%
    08:00 +15°C° 0 mm 2 mps 744 mmHg 56%
    09:00 +17°C° 0 mm 2 mps 744 mmHg 52%
    10:00 +19°C° 0 mm 2 mps 744 mmHg 48%
    11:00 +19°C° 0 mm 2 mps 744 mmHg 50%
    12:00 +20°C° 0 mm 3 mps 744 mmHg 52%
    13:00 +20°C° 0 mm 3 mps 744 mmHg 53%
    14:00 +19°C° 0 mm 3 mps 744 mmHg 60%
    15:00 +18°C° 0 mm 4 mps 744 mmHg 67%
    16:00 +17°C° 0 mm 4 mps 744 mmHg 73%
    17:00 +14°C° 0 mm 4 mps 744 mmHg 77%
    18:00 +13°C° 0 mm 3 mps 745 mmHg 80%
    19:00 +12°C° 0 mm 3 mps 745 mmHg 84%
    20:00 +12°C° 0 mm 3 mps 745 mmHg 83%
    21:00 +13°C° 0 mm 2 mps 745 mmHg 82%
    22:00 +12°C° 0 mm 2 mps 746 mmHg 81%
    23:00 +12°C° 0 mm 2 mps 746 mmHg 82%

    29 September, Saturday

    Time Temperature Precipitation Wind Pressure Humidity
    00:00 +12°C° 0 mm 2 mps 746 mmHg 82%
    01:00 +12°C° 0 mm 2 mps 746 mmHg 82%
    02:00 +10°C° 0 mm 2 mps 746 mmHg 83%
    03:00 +10°C° 0 mm 2 mps 747 mmHg 84%
    04:00 +9°C° 0 mm 2 mps 747 mmHg 86%
    05:00 +10°C° 0 mm 2 mps 747 mmHg 83%
    06:00 +10°C° 0 mm 2 mps 747 mmHg 81%
    07:00 +10°C° 0 mm 2 mps 748 mmHg 79%
    08:00 +11°C° 0 mm 3 mps 748 mmHg 71%
    09:00 +13°C° 0 mm 3 mps 748 mmHg 64%
    10:00 +14°C° 0 mm 4 mps 749 mmHg 56%
    11:00 +15°C° 0 mm 4 mps 748 mmHg 54%
    12:00 +17°C° 0 mm 4 mps 748 mmHg 51%
    13:00 +18°C° 0 mm 4 mps 748 mmHg 48%
    14:00 +17°C° 0 mm 4 mps 748 mmHg 49%
    15:00 +17°C° 0 mm 4 mps 748 mmHg 50%
    16:00 +17°C° 0 mm 4 mps 747 mmHg 51%
    17:00 +14°C° 0 mm 4 mps 748 mmHg 54%
    18:00 +13°C° 0 mm 3 mps 748 mmHg 58%
    19:00 +11°C° 0 mm 3 mps 748 mmHg 61%
    20:00 +11°C° 0 mm 3 mps 748 mmHg 63%
    21:00 +10°C° 0 mm 3 mps 748 mmHg 64%
    22:00 +10°C° 0 mm 2 mps 748 mmHg 66%
    23:00 +9°C° 0 mm 2 mps 748 mmHg 69%
    Show more

    3.3.7123123